Time,TemperatureF,DewpointF,PressureIn,WindDirection,WindDirectionDegrees,WindSpeedMPH,WindSpeedGustMPH,Humidity,HourlyPrecipIn,Conditions,Clouds,dailyrainin,SoftwareType,DateUTC
2013-08-28 00:02:00,67.8,64.8,29.94,SSE,158,0.0,0.0,90,0.00,,,0.00,meteohub,2013-08-28 04:02:00,
2013-08-28 00:07:00,67.6,64.6,29.91,SSE,158,0.0,0.0,90,0.00,,,0.00,meteohub,2013-08-28 04:07:00,
2013-08-28 00:12:00,67.3,64.2,29.91,SSE,158,0.0,0.0,90,0.00,,,0.00,meteohub,2013-08-28 04:12:00,
2013-08-28 00:17:00,67.3,64.6,29.91,SSE,158,0.0,0.0,91,0.00,,,0.00,meteohub,2013-08-28 04:17:00,
2013-08-28 00:22:00,67.3,64.6,29.94,SSE,158,0.0,0.0,91,0.00,,,0.00,meteohub,2013-08-28 04:22:00,
2013-08-28 00:27:00,67.1,64.4,29.94,SSE,158,0.0,0.0,91,0.00,,,0.00,meteohub,2013-08-28 04:27:00,
2013-08-28 00:32:00,67.1,64.4,29.94,SSE,158,0.0,0.0,91,0.00,,,0.00,meteohub,2013-08-28 04:32:00,
2013-08-28 00:37:00,67.1,64.4,29.94,SSE,158,0.0,0.0,91,0.00,,,0.00,meteohub,2013-08-28 04:37:00,
2013-08-28 00:42:00,67.1,64.4,29.94,SSE,158,0.0,0.0,91,0.00,,,0.00,meteohub,2013-08-28 04:42:00,
2013-08-28 00:47:00,66.9,64.2,29.91,SSE,158,0.0,0.0,91,0.00,,,0.00,meteohub,2013-08-28 04:47:00,
2013-08-28 00:52:00,66.9,64.6,29.91,SSE,158,0.0,0.0,92,0.00,,,0.00,meteohub,2013-08-28 04:52:00,
2013-08-28 00:57:00,66.9,64.2,29.91,SSE,158,0.0,0.0,91,0.00,,,0.00,meteohub,2013-08-28 04:57:00,
2013-08-28 01:02:00,66.7,64.4,29.91,SSE,158,0.0,0.0,92,0.00,,,0.00,meteohub,2013-08-28 05:02:00,
2013-08-28 01:07:00,66.7,64.4,29.91,SSE,158,0.0,0.0,92,0.00,,,0.00,meteohub,2013-08-28 05:07:00,
2013-08-28 01:12:00,66.6,64.2,29.91,SSE,158,0.0,0.0,92,0.00,,,0.00,meteohub,2013-08-28 05:12:00,
2013-08-28 01:17:00,66.6,64.2,29.94,SSE,158,0.0,0.0,92,0.00,,,0.00,meteohub,2013-08-28 05:17:00,
2013-08-28 01:22:00,66.6,64.2,29.94,SSE,158,0.0,0.0,92,0.00,,,0.00,meteohub,2013-08-28 05:22:00,
2013-08-28 01:27:00,66.6,64.2,29.94,SSE,158,0.0,0.0,92,0.00,,,0.00,meteohub,2013-08-28 05:27:00,
2013-08-28 01:32:00,66.4,64.0,29.94,SSE,158,0.0,0.0,92,0.00,,,0.00,meteohub,2013-08-28 05:32:00,
2013-08-28 01:37:00,66.4,64.0,29.94,SSE,158,0.0,0.0,92,0.00,,,0.00,meteohub,2013-08-28 05:37:00,
2013-08-28 01:42:00,66.4,64.0,29.94,SSE,158,0.0,0.0,92,0.00,,,0.00,meteohub,2013-08-28 05:42:00,
2013-08-28 01:47:00,66.4,64.0,29.94,SSE,158,0.0,0.0,92,0.00,,,0.00,meteohub,2013-08-28 05:47:00,
2013-08-28 01:52:00,66.6,64.4,29.94,SSE,158,0.0,0.0,93,0.00,,,0.00,meteohub,2013-08-28 05:52:00,
2013-08-28 01:57:00,66.7,64.6,29.94,SSE,158,0.0,0.0,93,0.00,,,0.00,meteohub,2013-08-28 05:57:00,
2013-08-28 02:02:00,66.7,64.4,29.94,SSE,158,0.0,0.0,92,0.00,,,0.00,meteohub,2013-08-28 06:02:00,
2013-08-28 02:07:00,66.6,64.4,29.94,SSE,158,0.0,0.0,93,0.00,,,0.00,meteohub,2013-08-28 06:07:00,
2013-08-28 02:12:00,66.6,64.4,29.94,SSE,158,0.0,0.0,93,0.00,,,0.00,meteohub,2013-08-28 06:12:00,
2013-08-28 02:17:00,66.6,64.4,29.94,SSE,158,0.0,0.0,93,0.00,,,0.00,meteohub,2013-08-28 06:17:00,
2013-08-28 02:22:00,66.6,64.4,29.94,SSE,158,0.0,0.0,93,0.00,,,0.00,meteohub,2013-08-28 06:22:00,
2013-08-28 02:27:00,66.6,64.4,29.94,SE,135,0.0,0.0,93,0.00,,,0.00,meteohub,2013-08-28 06:27:00,
2013-08-28 02:32:00,66.6,64.4,29.94,SE,135,0.0,0.0,93,0.00,,,0.00,meteohub,2013-08-28 06:32:00,
2013-08-28 02:37:00,66.4,64.2,29.94,SE,135,0.0,0.0,93,0.00,,,0.00,meteohub,2013-08-28 06:37:00,
2013-08-28 02:42:00,66.4,64.2,29.94,SE,135,0.0,0.0,93,0.00,,,0.00,meteohub,2013-08-28 06:42:00,
2013-08-28 02:47:00,66.4,64.2,29.94,SE,135,0.0,0.0,93,0.00,,,0.00,meteohub,2013-08-28 06:47:00,
2013-08-28 02:52:00,66.2,64.0,29.94,SE,135,0.0,0.0,93,0.00,,,0.00,meteohub,2013-08-28 06:52:00,
2013-08-28 02:57:00,66.2,64.0,29.94,SE,135,0.0,0.0,93,0.00,,,0.00,meteohub,2013-08-28 06:57:00,
2013-08-28 03:02:00,66.2,64.0,29.94,SE,135,0.0,0.0,93,0.00,,,0.00,meteohub,2013-08-28 07:02:00,
2013-08-28 03:07:00,66.0,64.2,29.94,SE,135,0.0,0.0,94,0.00,,,0.00,meteohub,2013-08-28 07:07:00,
2013-08-28 03:12:00,66.0,64.2,29.94,SE,135,0.0,0.0,94,0.00,,,0.00,meteohub,2013-08-28 07:12:00,
2013-08-28 03:17:00,66.0,64.2,29.94,SE,135,0.0,0.0,94,0.00,,,0.00,meteohub,2013-08-28 07:17:00,
2013-08-28 03:22:00,66.0,64.6,29.94,SE,135,0.0,0.0,95,0.00,,,0.00,meteohub,2013-08-28 07:22:00,
2013-08-28 03:27:00,66.0,64.6,29.94,SE,135,0.0,0.0,95,0.00,,,0.00,meteohub,2013-08-28 07:27:00,
2013-08-28 03:32:00,65.8,64.4,29.91,SE,135,0.0,0.0,95,0.00,,,0.00,meteohub,2013-08-28 07:32:00,
2013-08-28 03:37:00,65.8,64.0,29.91,SE,135,0.0,0.0,94,0.00,,,0.00,meteohub,2013-08-28 07:37:00,
2013-08-28 03:42:00,66.0,64.6,29.91,SE,135,0.0,0.0,95,0.00,,,0.00,meteohub,2013-08-28 07:42:00,
2013-08-28 03:47:00,65.8,64.4,29.91,SE,135,0.0,0.0,95,0.00,,,0.00,meteohub,2013-08-28 07:47:00,
2013-08-28 03:52:00,65.8,64.4,29.91,SE,135,0.0,0.0,95,0.00,,,0.00,meteohub,2013-08-28 07:52:00,
2013-08-28 03:57:00,65.8,64.0,29.91,SE,135,0.0,0.0,94,0.00,,,0.00,meteohub,2013-08-28 07:57:00,
2013-08-28 04:02:00,65.8,64.4,29.94,SE,135,0.0,0.0,95,0.00,,,0.00,meteohub,2013-08-28 08:02:00,
2013-08-28 04:07:00,65.7,63.9,29.94,SE,135,0.0,0.0,94,0.00,,,0.00,meteohub,2013-08-28 08:07:00,
2013-08-28 04:12:00,65.5,63.7,29.94,SE,135,0.0,0.0,94,0.00,,,0.00,meteohub,2013-08-28 08:12:00,
2013-08-28 04:17:00,65.3,63.5,29.94,SE,135,0.0,0.0,94,0.00,,,0.00,meteohub,2013-08-28 08:17:00,
2013-08-28 04:22:00,65.3,63.9,29.94,SE,135,0.0,0.0,95,0.00,,,0.00,meteohub,2013-08-28 08:22:00,
2013-08-28 04:27:00,65.3,63.9,29.94,SE,135,0.0,0.0,95,0.00,,,0.00,meteohub,2013-08-28 08:27:00,
2013-08-28 04:32:00,65.3,63.9,29.94,SE,135,0.0,0.0,95,0.00,,,0.00,meteohub,2013-08-28 08:32:00,
2013-08-28 04:37:00,65.1,63.3,29.94,SE,135,0.0,0.0,94,0.00,,,0.00,meteohub,2013-08-28 08:37:00,
2013-08-28 04:42:00,64.9,63.1,29.94,SE,135,0.0,0.0,94,0.00,,,0.00,meteohub,2013-08-28 08:42:00,
2013-08-28 04:47:00,64.9,63.1,29.94,SE,135,0.0,0.0,94,0.00,,,0.00,meteohub,2013-08-28 08:47:00,
2013-08-28 04:52:00,64.8,63.3,29.94,SE,135,0.0,0.0,95,0.00,,,0.00,meteohub,2013-08-28 08:52:00,
2013-08-28 04:57:00,64.8,63.3,29.94,SE,135,0.0,0.0,95,0.00,,,0.00,meteohub,2013-08-28 08:57:00,
2013-08-28 05:02:00,64.8,63.3,29.94,SE,135,0.0,0.0,95,0.00,,,0.00,meteohub,2013-08-28 09:02:00,
2013-08-28 05:07:00,64.6,62.8,29.94,SE,135,0.0,0.0,94,0.00,,,0.00,meteohub,2013-08-28 09:07:00,
2013-08-28 05:12:00,64.4,62.6,29.94,SE,135,0.0,0.0,94,0.00,,,0.00,meteohub,2013-08-28 09:12:00,
2013-08-28 05:17:00,64.4,62.6,29.94,SE,135,0.0,0.0,94,0.00,,,0.00,meteohub,2013-08-28 09:17:00,
2013-08-28 05:22:00,64.4,62.6,29.94,SE,135,0.0,0.0,94,0.00,,,0.00,meteohub,2013-08-28 09:22:00,
2013-08-28 05:27:00,64.2,62.8,29.94,SE,135,0.0,0.0,95,0.00,,,0.00,meteohub,2013-08-28 09:27:00,
2013-08-28 05:32:00,64.2,62.8,29.94,SE,135,0.0,0.0,95,0.00,,,0.00,meteohub,2013-08-28 09:32:00,
2013-08-28 05:42:00,64.2,62.8,29.94,SE,135,0.0,0.0,95,0.00,,,0.00,meteohub,2013-08-28 09:42:00,
2013-08-28 05:47:00,64.2,63.1,29.94,SE,135,0.0,0.0,96,0.00,,,0.00,meteohub,2013-08-28 09:47:00,
2013-08-28 05:52:00,64.2,63.1,29.94,SE,135,0.0,0.0,96,0.00,,,0.00,meteohub,2013-08-28 09:52:00,
2013-08-28 05:57:00,64.2,63.1,29.94,SE,135,0.0,0.0,96,0.00,,,0.00,meteohub,2013-08-28 09:57:00,
2013-08-28 06:02:00,64.2,63.1,29.91,South,180,0.0,0.0,96,0.00,,,0.00,meteohub,2013-08-28 10:02:00,
2013-08-28 06:07:00,64.0,62.6,29.91,South,180,0.0,0.0,95,0.00,,,0.00,meteohub,2013-08-28 10:07:00,
2013-08-28 06:12:00,64.0,63.0,29.91,South,180,0.0,0.0,96,0.00,,,0.00,meteohub,2013-08-28 10:12:00,
2013-08-28 06:17:00,63.9,62.4,29.94,South,180,0.0,0.0,95,0.00,,,0.00,meteohub,2013-08-28 10:17:00,
2013-08-28 06:22:00,63.7,62.6,29.94,South,180,0.0,0.0,96,0.00,,,0.00,meteohub,2013-08-28 10:22:00,
2013-08-28 06:27:00,63.7,62.6,29.94,South,180,0.0,0.0,96,0.00,,,0.00,meteohub,2013-08-28 10:27:00,
2013-08-28 06:32:00,63.7,62.6,29.94,South,180,0.0,0.0,96,0.00,,,0.00,meteohub,2013-08-28 10:32:00,
2013-08-28 06:37:00,63.5,62.4,29.94,South,180,0.0,0.0,96,0.00,,,0.00,meteohub,2013-08-28 10:37:00,
2013-08-28 06:42:00,63.5,62.4,29.94,South,180,0.0,0.0,96,0.00,,,0.00,meteohub,2013-08-28 10:42:00,
2013-08-28 06:47:00,63.5,62.4,29.94,South,180,0.0,0.0,96,0.00,,,0.00,meteohub,2013-08-28 10:47:00,
2013-08-28 06:52:00,63.7,62.6,29.94,South,180,0.0,0.0,96,0.00,,,0.00,meteohub,2013-08-28 10:52:00,
2013-08-28 06:57:00,63.7,62.6,29.94,South,180,0.0,0.0,96,0.00,,,0.00,meteohub,2013-08-28 10:57:00,
2013-08-28 07:02:00,63.7,62.6,29.94,South,180,0.0,0.0,96,0.00,,,0.00,meteohub,2013-08-28 11:02:00,
2013-08-28 07:07:00,63.7,62.6,29.94,SE,135,0.0,0.0,96,0.00,,,0.00,meteohub,2013-08-28 11:07:00,
2013-08-28 07:12:00,63.9,62.8,29.94,SE,135,0.0,0.0,96,0.00,,,0.00,meteohub,2013-08-28 11:12:00,
2013-08-28 07:17:00,64.0,63.0,29.94,SE,135,0.0,0.0,96,0.00,,,0.00,meteohub,2013-08-28 11:17:00,
2013-08-28 07:22:00,64.2,63.1,29.97,SE,135,0.0,0.0,96,0.00,,,0.00,meteohub,2013-08-28 11:22:00,
2013-08-28 07:27:00,64.4,63.3,29.97,SE,135,0.0,0.0,96,0.00,,,0.00,meteohub,2013-08-28 11:27:00,
2013-08-28 07:32:00,64.8,63.9,29.94,South,180,0.0,0.0,97,0.00,,,0.00,meteohub,2013-08-28 11:32:00,
2013-08-28 07:37:00,64.9,64.0,29.94,South,180,0.0,0.0,97,0.00,,,0.00,meteohub,2013-08-28 11:37:00,
2013-08-28 07:42:00,65.1,64.0,29.94,SSE,158,0.0,0.0,96,0.00,,,0.00,meteohub,2013-08-28 11:42:00,
2013-08-28 07:47:00,65.5,64.2,29.94,SSE,158,0.0,0.0,96,0.00,,,0.00,meteohub,2013-08-28 11:47:00,
2013-08-28 07:52:00,65.7,64.4,29.94,SSE,158,0.0,0.0,96,0.00,,,0.00,meteohub,2013-08-28 11:52:00,
2013-08-28 07:57:00,65.8,64.9,29.94,ESE,112,0.0,0.0,97,0.00,,,0.00,meteohub,2013-08-28 11:57:00,
2013-08-28 08:02:00,66.2,64.9,29.94,South,180,0.0,0.0,96,0.00,,,0.00,meteohub,2013-08-28 12:02:00,
2013-08-28 08:07:00,66.6,65.3,29.94,South,180,0.0,0.0,96,0.00,,,0.00,meteohub,2013-08-28 12:07:00,
2013-08-28 08:12:00,66.7,65.5,29.94,South,180,0.0,0.0,96,0.00,,,0.00,meteohub,2013-08-28 12:12:00,
2013-08-28 08:17:00,67.3,66.0,29.97,South,180,0.0,0.0,96,0.00,,,0.00,meteohub,2013-08-28 12:17:00,
2013-08-28 08:22:00,67.6,66.4,29.97,South,180,0.0,0.0,96,0.00,,,0.00,meteohub,2013-08-28 12:22:00,
2013-08-28 08:27:00,68.0,66.7,29.97,South,180,0.0,0.0,96,0.00,,,0.00,meteohub,2013-08-28 12:27:00,
2013-08-28 08:32:00,68.4,67.1,29.97,South,180,0.0,0.0,96,0.00,,,0.00,meteohub,2013-08-28 12:32:00,
2013-08-28 08:37:00,68.5,67.3,29.97,South,180,0.0,0.0,96,0.00,,,0.00,meteohub,2013-08-28 12:37:00,
2013-08-28 08:42:00,68.9,67.5,29.97,East,90,0.0,0.0,95,0.00,,,0.00,meteohub,2013-08-28 12:42:00,
2013-08-28 08:47:00,69.3,67.8,29.97,East,90,0.0,0.0,95,0.00,,,0.00,meteohub,2013-08-28 12:47:00,
2013-08-28 08:52:00,69.6,67.8,29.94,East,90,0.0,0.0,94,0.00,,,0.00,meteohub,2013-08-28 12:52:00,
2013-08-28 08:57:00,69.8,67.6,29.94,East,90,0.0,0.0,93,0.00,,,0.00,meteohub,2013-08-28 12:57:00,
2013-08-28 09:02:00,70.2,68.0,29.94,East,90,0.0,0.0,93,0.00,,,0.00,meteohub,2013-08-28 13:02:00,
2013-08-28 09:07:00,70.3,67.8,29.94,East,90,0.0,0.0,92,0.00,,,0.00,meteohub,2013-08-28 13:07:00,
2013-08-28 09:12:00,70.9,68.2,29.94,East,90,0.0,0.0,91,0.00,,,0.00,meteohub,2013-08-28 13:12:00,
2013-08-28 09:17:00,71.2,68.5,29.94,ENE,68,0.0,0.0,91,0.00,,,0.00,meteohub,2013-08-28 13:17:00,
2013-08-28 09:22:00,71.8,68.4,29.97,ENE,68,0.0,0.0,89,0.00,,,0.00,meteohub,2013-08-28 13:22:00,
2013-08-28 09:27:00,72.1,68.4,29.97,SSE,158,0.0,0.0,88,0.00,,,0.00,meteohub,2013-08-28 13:27:00,
2013-08-28 09:32:00,72.5,68.4,29.97,WNW,292,0.0,0.0,87,0.00,,,0.00,meteohub,2013-08-28 13:32:00,
2013-08-28 09:37:00,72.7,68.2,29.97,NNW,338,0.0,0.0,86,0.00,,,0.00,meteohub,2013-08-28 13:37:00,
2013-08-28 09:42:00,73.2,68.2,29.97,East,90,0.0,0.0,84,0.00,,,0.00,meteohub,2013-08-28 13:42:00,
2013-08-28 09:47:00,73.8,68.4,29.97,NNW,338,0.0,0.0,83,0.00,,,0.00,meteohub,2013-08-28 13:47:00,
2013-08-28 09:52:00,74.1,68.0,29.97,ENE,68,2.0,0.0,81,0.00,,,0.00,meteohub,2013-08-28 13:52:00,
2013-08-28 09:57:00,74.7,68.0,29.97,SE,135,2.0,2.0,80,0.00,,,0.00,meteohub,2013-08-28 13:57:00,
2013-08-28 10:02:00,75.0,68.0,29.97,NNE,22,0.0,4.0,79,0.00,,,0.00,meteohub,2013-08-28 14:02:00,
2013-08-28 10:07:00,75.6,68.2,29.97,SE,135,2.0,4.0,78,0.00,,,0.00,meteohub,2013-08-28 14:07:00,
2013-08-28 10:12:00,75.9,68.2,29.97,North,0,1.0,2.0,77,0.00,,,0.00,meteohub,2013-08-28 14:12:00,
2013-08-28 10:17:00,75.9,66.6,29.97,NNW,338,1.0,2.0,73,0.00,,,0.00,meteohub,2013-08-28 14:17:00,
2013-08-28 10:22:00,75.9,64.9,29.97,NNW,338,2.0,2.0,69,0.00,,,0.00,meteohub,2013-08-28 14:22:00,
2013-08-28 10:27:00,76.1,65.1,29.97,WNW,292,1.0,2.0,69,0.00,,,0.00,meteohub,2013-08-28 14:27:00,
2013-08-28 10:32:00,76.5,65.5,29.94,ENE,68,0.0,2.0,69,0.00,,,0.00,meteohub,2013-08-28 14:32:00,
2013-08-28 10:42:00,76.8,64.9,29.94,NW,315,0.0,2.0,67,0.00,,,0.00,meteohub,2013-08-28 14:42:00,
2013-08-28 10:47:00,77.0,65.1,29.94,NW,315,0.0,2.0,67,0.00,,,0.00,meteohub,2013-08-28 14:47:00,
2013-08-28 10:52:00,77.2,64.9,29.97,NNW,338,1.0,2.0,66,0.00,,,0.00,meteohub,2013-08-28 14:52:00,
2013-08-28 10:57:00,77.4,65.1,29.97,ENE,68,0.0,2.0,66,0.00,,,0.00,meteohub,2013-08-28 14:57:00,
2013-08-28 11:02:00,78.1,65.3,29.97,South,180,2.0,3.0,65,0.00,,,0.00,meteohub,2013-08-28 15:02:00,
2013-08-28 11:07:00,78.3,66.0,29.97,North,0,2.0,3.0,66,0.00,,,0.00,meteohub,2013-08-28 15:07:00,
2013-08-28 11:12:00,78.4,66.2,29.97,NW,315,0.0,3.0,66,0.00,,,0.00,meteohub,2013-08-28 15:12:00,
2013-08-28 11:17:00,78.4,65.7,29.94,South,180,2.0,2.0,65,0.00,,,0.00,meteohub,2013-08-28 15:17:00,
2013-08-28 11:22:00,78.6,64.6,29.94,North,0,2.0,4.0,62,0.00,,,0.00,meteohub,2013-08-28 15:22:00,
2013-08-28 11:27:00,78.8,64.8,29.94,South,180,3.0,4.0,62,0.00,,,0.00,meteohub,2013-08-28 15:27:00,
2013-08-28 11:32:00,79.2,65.5,29.94,North,0,0.0,4.0,63,0.00,,,0.00,meteohub,2013-08-28 15:32:00,
2013-08-28 11:37:00,79.3,64.8,29.94,SSE,158,4.0,4.0,61,0.00,,,0.00,meteohub,2013-08-28 15:37:00,
2013-08-28 11:42:00,79.7,65.5,29.94,NNE,22,1.0,4.0,62,0.00,,,0.00,meteohub,2013-08-28 15:42:00,
2013-08-28 11:47:00,79.7,65.1,29.94,NE,45,1.0,4.0,61,0.00,,,0.00,meteohub,2013-08-28 15:47:00,
2013-08-28 11:52:00,80.2,66.0,29.94,ESE,112,2.0,4.0,62,0.00,,,0.00,meteohub,2013-08-28 15:52:00,
2013-08-28 11:57:00,80.2,65.1,29.94,WNW,292,0.0,3.0,60,0.00,,,0.00,meteohub,2013-08-28 15:57:00,
2013-08-28 12:02:00,80.4,65.7,29.94,North,0,0.0,3.0,61,0.00,,,0.00,meteohub,2013-08-28 16:02:00,
2013-08-28 12:12:00,80.6,64.9,29.94,SSE,158,2.0,2.0,59,0.00,,,0.00,meteohub,2013-08-28 16:12:00,
2013-08-28 12:17:00,80.8,65.1,29.94,East,90,2.0,3.0,59,0.00,,,0.00,meteohub,2013-08-28 16:17:00,
2013-08-28 12:22:00,81.0,65.3,29.94,NW,315,0.0,3.0,59,0.00,,,0.00,meteohub,2013-08-28 16:22:00,
2013-08-28 12:27:00,80.8,64.6,29.94,NNW,338,2.0,3.0,58,0.00,,,0.00,meteohub,2013-08-28 16:27:00,
2013-08-28 12:32:00,80.2,64.6,29.94,West,270,0.0,3.0,59,0.00,,,0.00,meteohub,2013-08-28 16:32:00,
2013-08-28 12:37:00,80.2,64.6,29.94,NW,315,0.0,2.0,59,0.00,,,0.00,meteohub,2013-08-28 16:37:00,
2013-08-28 12:42:00,80.6,64.9,29.94,NNE,22,2.0,2.0,59,0.00,,,0.00,meteohub,2013-08-28 16:42:00,
2013-08-28 12:47:00,81.0,64.2,29.94,ENE,68,4.0,4.0,57,0.00,,,0.00,meteohub,2013-08-28 16:47:00,
2013-08-28 12:52:00,81.1,64.9,29.94,SSE,158,4.0,4.0,58,0.00,,,0.00,meteohub,2013-08-28 16:52:00,
2013-08-28 12:57:00,81.3,65.1,29.94,SSW,202,0.0,4.0,58,0.00,,,0.00,meteohub,2013-08-28 16:57:00,
2013-08-28 13:02:00,81.5,63.3,29.94,SSE,158,1.0,4.0,54,0.00,,,0.00,meteohub,2013-08-28 17:02:00,
2013-08-28 13:07:00,81.9,63.5,29.97,WNW,292,3.0,4.0,54,0.00,,,0.00,meteohub,2013-08-28 17:07:00,
2013-08-28 13:12:00,82.2,63.3,29.97,West,270,1.0,5.0,53,0.00,,,0.00,meteohub,2013-08-28 17:12:00,
2013-08-28 13:17:00,82.2,62.2,29.94,North,0,0.0,5.0,51,0.00,,,0.00,meteohub,2013-08-28 17:17:00,
2013-08-28 13:22:00,82.2,62.2,29.94,North,0,3.0,5.0,51,0.00,,,0.00,meteohub,2013-08-28 17:22:00,
2013-08-28 13:27:00,82.6,61.5,29.94,NNE,22,4.0,6.0,49,0.00,,,0.00,meteohub,2013-08-28 17:27:00,
2013-08-28 13:32:00,82.6,59.7,29.94,NNW,338,2.0,6.0,46,0.00,,,0.00,meteohub,2013-08-28 17:32:00,
2013-08-28 13:37:00,82.8,60.4,29.94,SSW,202,2.0,6.0,47,0.00,,,0.00,meteohub,2013-08-28 17:37:00,
2013-08-28 13:42:00,82.9,62.4,29.94,SSE,158,2.0,6.0,50,0.00,,,0.00,meteohub,2013-08-28 17:42:00,
2013-08-28 13:47:00,82.9,60.6,29.94,NE,45,0.0,5.0,47,0.00,,,0.00,meteohub,2013-08-28 17:47:00,
2013-08-28 13:52:00,82.8,59.2,29.94,NNW,338,3.0,7.0,45,0.00,,,0.00,meteohub,2013-08-28 17:52:00,
2013-08-28 13:57:00,82.9,61.2,29.94,NNE,22,5.0,7.0,48,0.00,,,0.00,meteohub,2013-08-28 17:57:00,
2013-08-28 14:02:00,82.9,60.6,29.91,SSE,158,3.0,6.0,47,0.00,,,0.00,meteohub,2013-08-28 18:02:00,
2013-08-28 14:07:00,82.9,61.2,29.91,NNE,22,2.0,6.0,48,0.00,,,0.00,meteohub,2013-08-28 18:07:00,
2013-08-28 14:12:00,83.1,60.8,29.91,SSW,202,3.0,6.0,47,0.00,,,0.00,meteohub,2013-08-28 18:12:00,
2013-08-28 14:17:00,83.5,61.2,29.91,WNW,292,2.0,4.0,47,0.00,,,0.00,meteohub,2013-08-28 18:17:00,
2013-08-28 14:22:00,83.3,61.5,29.91,West,270,2.0,6.0,48,0.00,,,0.00,meteohub,2013-08-28 18:22:00,
2013-08-28 14:27:00,83.7,61.9,29.91,ESE,112,2.0,6.0,48,0.00,,,0.00,meteohub,2013-08-28 18:27:00,
2013-08-28 14:32:00,83.5,60.4,29.91,ENE,68,1.0,6.0,46,0.00,,,0.00,meteohub,2013-08-28 18:32:00,
2013-08-28 14:37:00,83.1,61.3,29.91,NNE,22,0.0,6.0,48,0.00,,,0.00,meteohub,2013-08-28 18:37:00,
2013-08-28 14:42:00,82.8,61.0,29.91,SE,135,0.0,5.0,48,0.00,,,0.00,meteohub,2013-08-28 18:42:00,
2013-08-28 14:47:00,82.9,60.6,29.91,SW,225,2.0,4.0,47,0.00,,,0.00,meteohub,2013-08-28 18:47:00,
2013-08-28 14:52:00,83.1,61.3,29.91,WNW,292,3.0,8.0,48,0.00,,,0.00,meteohub,2013-08-28 18:52:00,
2013-08-28 14:57:00,83.1,60.8,29.91,NE,45,1.0,8.0,47,0.00,,,0.00,meteohub,2013-08-28 18:57:00,
2013-08-28 15:02:00,82.8,61.0,29.91,SSW,202,0.0,6.0,48,0.00,,,0.00,meteohub,2013-08-28 19:02:00,
2013-08-28 15:07:00,82.6,61.0,29.88,South,180,2.0,6.0,48,0.00,,,0.00,meteohub,2013-08-28 19:07:00,
2013-08-28 15:12:00,82.9,61.2,29.88,SW,225,1.0,4.0,48,0.00,,,0.00,meteohub,2013-08-28 19:12:00,
2013-08-28 15:17:00,82.9,61.2,29.91,North,0,0.0,4.0,48,0.00,,,0.00,meteohub,2013-08-28 19:17:00,
2013-08-28 15:22:00,83.3,61.5,29.91,NNE,22,4.0,6.0,48,0.00,,,0.00,meteohub,2013-08-28 19:22:00,
2013-08-28 15:27:00,83.1,61.3,29.91,NNE,22,5.0,6.0,48,0.00,,,0.00,meteohub,2013-08-28 19:27:00,
2013-08-28 15:32:00,82.9,60.1,29.91,SSE,158,0.0,6.0,46,0.00,,,0.00,meteohub,2013-08-28 19:32:00,
2013-08-28 15:37:00,82.6,60.3,29.88,North,0,2.0,6.0,47,0.00,,,0.00,meteohub,2013-08-28 19:37:00,
2013-08-28 15:42:00,82.2,60.6,29.88,NNE,22,5.0,7.0,48,0.00,,,0.00,meteohub,2013-08-28 19:42:00,
2013-08-28 15:47:00,82.0,60.4,29.88,North,0,5.0,7.0,48,0.00,,,0.00,meteohub,2013-08-28 19:47:00,
2013-08-28 15:52:00,82.0,60.4,29.88,SW,225,3.0,7.0,48,0.00,,,0.00,meteohub,2013-08-28 19:52:00,
2013-08-28 15:57:00,81.9,60.3,29.88,South,180,1.0,7.0,48,0.00,,,0.00,meteohub,2013-08-28 19:57:00,
2013-08-28 16:02:00,81.7,60.1,29.88,NNE,22,0.0,7.0,48,0.00,,,0.00,meteohub,2013-08-28 20:02:00,
2013-08-28 16:07:00,81.7,61.2,29.88,NE,45,3.0,6.0,50,0.00,,,0.00,meteohub,2013-08-28 20:07:00,
2013-08-28 16:12:00,81.5,61.0,29.88,ENE,68,5.0,6.0,50,0.00,,,0.00,meteohub,2013-08-28 20:12:00,
2013-08-28 16:17:00,81.3,61.0,29.88,South,180,3.0,5.0,50,0.00,,,0.00,meteohub,2013-08-28 20:17:00,
2013-08-28 16:22:00,81.1,59.5,29.88,East,90,3.0,5.0,48,0.00,,,0.00,meteohub,2013-08-28 20:22:00,
2013-08-28 16:27:00,81.1,60.8,29.88,NNE,22,2.0,5.0,50,0.00,,,0.00,meteohub,2013-08-28 20:27:00,
2013-08-28 16:32:00,80.8,59.9,29.91,East,90,2.0,4.0,49,0.00,,,0.00,meteohub,2013-08-28 20:32:00,
2013-08-28 16:37:00,80.4,60.1,29.91,NNE,22,2.0,6.0,50,0.00,,,0.00,meteohub,2013-08-28 20:37:00,
2013-08-28 16:42:00,80.2,60.4,29.91,East,90,3.0,6.0,51,0.00,,,0.00,meteohub,2013-08-28 20:42:00,
2013-08-28 16:47:00,80.1,60.8,29.91,North,0,6.0,6.0,52,0.00,,,0.00,meteohub,2013-08-28 20:47:00,
2013-08-28 16:52:00,79.7,59.9,29.91,NE,45,3.0,6.0,51,0.00,,,0.00,meteohub,2013-08-28 20:52:00,
2013-08-28 16:57:00,79.5,59.7,29.91,SE,135,5.0,6.0,51,0.00,,,0.00,meteohub,2013-08-28 20:57:00,
2013-08-28 17:02:00,79.2,60.1,29.94,NW,315,0.0,6.0,52,0.00,,,0.00,meteohub,2013-08-28 21:02:00,
2013-08-28 17:07:00,79.0,59.4,29.94,NE,45,6.0,6.0,51,0.00,,,0.00,meteohub,2013-08-28 21:07:00,
2013-08-28 17:12:00,78.8,59.7,29.94,NE,45,2.0,6.0,52,0.00,,,0.00,meteohub,2013-08-28 21:12:00,
2013-08-28 17:17:00,78.6,59.5,29.91,North,0,1.0,6.0,52,0.00,,,0.00,meteohub,2013-08-28 21:17:00,
2013-08-28 17:22:00,78.4,59.9,29.91,ENE,68,4.0,6.0,53,0.00,,,0.00,meteohub,2013-08-28 21:22:00,
2013-08-28 17:27:00,78.3,58.6,29.91,ENE,68,3.0,6.0,51,0.00,,,0.00,meteohub,2013-08-28 21:27:00,
2013-08-28 17:32:00,78.1,59.5,29.91,SE,135,0.0,7.0,53,0.00,,,0.00,meteohub,2013-08-28 21:32:00,
2013-08-28 17:37:00,77.9,58.8,29.91,NE,45,4.0,7.0,52,0.00,,,0.00,meteohub,2013-08-28 21:37:00,
2013-08-28 17:42:00,77.7,57.0,29.91,NE,45,3.0,6.0,49,0.00,,,0.00,meteohub,2013-08-28 21:42:00,
2013-08-28 17:47:00,77.5,56.8,29.91,ENE,68,2.0,4.0,49,0.00,,,0.00,meteohub,2013-08-28 21:47:00,
2013-08-28 17:52:00,77.4,57.2,29.91,NE,45,3.0,5.0,50,0.00,,,0.00,meteohub,2013-08-28 21:52:00,
2013-08-28 17:57:00,77.4,57.7,29.91,NNE,22,1.0,5.0,51,0.00,,,0.00,meteohub,2013-08-28 21:57:00,
2013-08-28 18:02:00,77.2,58.3,29.91,South,180,2.0,5.0,52,0.00,,,0.00,meteohub,2013-08-28 22:02:00,
2013-08-28 18:07:00,77.0,58.1,29.94,NNW,338,0.0,4.0,52,0.00,,,0.00,meteohub,2013-08-28 22:07:00,
2013-08-28 18:12:00,76.8,59.0,29.94,South,180,0.0,4.0,54,0.00,,,0.00,meteohub,2013-08-28 22:12:00,
2013-08-28 18:17:00,76.6,58.8,29.94,NNE,22,2.0,4.0,54,0.00,,,0.00,meteohub,2013-08-28 22:17:00,
2013-08-28 18:22:00,76.6,58.3,29.94,SSE,158,1.0,4.0,53,0.00,,,0.00,meteohub,2013-08-28 22:22:00,
2013-08-28 18:27:00,76.5,58.6,29.94,East,90,3.0,4.0,54,0.00,,,0.00,meteohub,2013-08-28 22:27:00,
2013-08-28 18:32:00,76.5,58.6,29.94,North,0,2.0,3.0,54,0.00,,,0.00,meteohub,2013-08-28 22:32:00,
2013-08-28 18:37:00,76.3,58.5,29.94,North,0,2.0,3.0,54,0.00,,,0.00,meteohub,2013-08-28 22:37:00,
2013-08-28 18:42:00,76.3,58.5,29.94,ESE,112,2.0,4.0,54,0.00,,,0.00,meteohub,2013-08-28 22:42:00,
2013-08-28 18:47:00,76.1,59.2,29.94,NNE,22,2.0,4.0,56,0.00,,,0.00,meteohub,2013-08-28 22:47:00,
2013-08-28 18:52:00,75.7,59.0,29.94,NW,315,0.0,4.0,56,0.00,,,0.00,meteohub,2013-08-28 22:52:00,
2013-08-28 18:57:00,75.7,59.0,29.94,WNW,292,0.0,3.0,56,0.00,,,0.00,meteohub,2013-08-28 22:57:00,
2013-08-28 19:02:00,75.6,59.2,29.94,SW,225,2.0,3.0,57,0.00,,,0.00,meteohub,2013-08-28 23:02:00,
2013-08-28 19:07:00,75.4,60.1,29.94,SW,225,0.0,3.0,59,0.00,,,0.00,meteohub,2013-08-28 23:07:00,
2013-08-28 19:12:00,75.2,59.9,29.94,South,180,0.0,2.0,59,0.00,,,0.00,meteohub,2013-08-28 23:12:00,
2013-08-28 19:17:00,75.0,60.3,29.94,SSE,158,0.0,2.0,60,0.00,,,0.00,meteohub,2013-08-28 23:17:00,
2013-08-28 19:22:00,75.0,60.6,29.94,South,180,1.0,1.0,61,0.00,,,0.00,meteohub,2013-08-28 23:22:00,
2013-08-28 19:27:00,74.8,60.4,29.94,East,90,0.0,1.0,61,0.00,,,0.00,meteohub,2013-08-28 23:27:00,
2013-08-28 19:32:00,74.7,60.3,29.94,East,90,0.0,1.0,61,0.00,,,0.00,meteohub,2013-08-28 23:32:00,
2013-08-28 19:37:00,74.5,60.6,29.94,East,90,0.0,1.0,62,0.00,,,0.00,meteohub,2013-08-28 23:37:00,
2013-08-28 19:42:00,74.1,60.8,29.94,ESE,112,0.0,0.0,63,0.00,,,0.00,meteohub,2013-08-28 23:42:00,
2013-08-28 19:47:00,74.1,60.8,29.94,SE,135,0.0,0.0,63,0.00,,,0.00,meteohub,2013-08-28 23:47:00,
2013-08-28 19:52:00,74.1,61.2,29.94,NE,45,2.0,0.0,64,0.00,,,0.00,meteohub,2013-08-28 23:52:00,
2013-08-28 19:57:00,74.1,61.2,29.94,SSE,158,0.0,2.0,64,0.00,,,0.00,meteohub,2013-08-28 23:57:00,
2013-08-28 20:02:00,73.8,60.8,29.94,NW,315,0.0,2.0,64,0.00,,,0.00,meteohub,2013-08-29 00:02:00,
2013-08-28 20:07:00,73.6,61.2,29.94,NW,315,0.0,2.0,65,0.00,,,0.00,meteohub,2013-08-29 00:07:00,
2013-08-28 20:12:00,73.4,61.3,29.94,NW,315,0.0,0.0,66,0.00,,,0.00,meteohub,2013-08-29 00:12:00,
2013-08-28 20:17:00,73.2,61.5,29.94,NW,315,0.0,0.0,67,0.00,,,0.00,meteohub,2013-08-29 00:17:00,
2013-08-28 20:22:00,73.0,61.9,29.94,NNW,338,0.0,0.0,68,0.00,,,0.00,meteohub,2013-08-29 00:22:00,
2013-08-28 20:27:00,73.0,62.2,29.94,NNW,338,1.0,1.0,69,0.00,,,0.00,meteohub,2013-08-29 00:27:00,
2013-08-28 20:32:00,73.0,62.2,29.97,NE,45,0.0,4.0,69,0.00,,,0.00,meteohub,2013-08-29 00:32:00,
2013-08-28 20:37:00,72.9,62.1,29.97,NNW,338,0.0,4.0,69,0.00,,,0.00,meteohub,2013-08-29 00:37:00,
2013-08-28 20:42:00,72.5,61.7,29.97,ENE,68,0.0,4.0,69,0.00,,,0.00,meteohub,2013-08-29 00:42:00,
2013-08-28 20:47:00,72.3,61.5,29.97,WNW,292,0.0,2.0,69,0.00,,,0.00,meteohub,2013-08-29 00:47:00,
2013-08-28 20:52:00,72.0,61.7,29.97,West,270,0.0,2.0,70,0.00,,,0.00,meteohub,2013-08-29 00:52:00,
2013-08-28 20:57:00,71.8,61.9,29.97,West,270,0.0,2.0,71,0.00,,,0.00,meteohub,2013-08-29 00:57:00,
2013-08-28 21:02:00,71.8,61.5,29.97,West,270,0.0,2.0,70,0.00,,,0.00,meteohub,2013-08-29 01:02:00,
2013-08-28 21:07:00,71.4,61.9,29.97,West,270,0.0,2.0,72,0.00,,,0.00,meteohub,2013-08-29 01:07:00,
2013-08-28 21:12:00,71.2,62.1,29.97,West,270,0.0,0.0,73,0.00,,,0.00,meteohub,2013-08-29 01:12:00,
2013-08-28 21:17:00,71.1,61.9,29.97,West,270,0.0,0.0,73,0.00,,,0.00,meteohub,2013-08-29 01:17:00,
2013-08-28 21:22:00,70.7,62.1,29.97,WSW,248,0.0,0.0,74,0.00,,,0.00,meteohub,2013-08-29 01:22:00,
2013-08-28 21:27:00,70.7,62.4,29.97,SW,225,0.0,0.0,75,0.00,,,0.00,meteohub,2013-08-29 01:27:00,
2013-08-28 21:32:00,70.5,62.2,29.97,NW,315,0.0,0.0,75,0.00,,,0.00,meteohub,2013-08-29 01:32:00,
2013-08-28 21:37:00,70.3,62.1,29.97,NW,315,0.0,0.0,75,0.00,,,0.00,meteohub,2013-08-29 01:37:00,
2013-08-28 21:42:00,70.2,62.2,29.97,NW,315,0.0,0.0,76,0.00,,,0.00,meteohub,2013-08-29 01:42:00,
2013-08-28 21:47:00,70.0,62.4,29.97,SSW,202,0.0,0.0,77,0.00,,,0.00,meteohub,2013-08-29 01:47:00,
2013-08-28 21:52:00,70.0,62.4,29.97,SSW,202,0.0,0.0,77,0.00,,,0.00,meteohub,2013-08-29 01:52:00,
2013-08-28 21:57:00,69.8,62.2,29.97,SSW,202,0.0,0.0,77,0.00,,,0.00,meteohub,2013-08-29 01:57:00,
2013-08-28 22:02:00,69.6,62.4,29.97,ESE,112,0.0,0.0,78,0.00,,,0.00,meteohub,2013-08-29 02:02:00,
2013-08-28 22:07:00,69.4,62.6,29.97,East,90,0.0,0.0,79,0.00,,,0.00,meteohub,2013-08-29 02:07:00,
2013-08-28 22:12:00,69.3,62.1,29.97,East,90,0.0,0.0,78,0.00,,,0.00,meteohub,2013-08-29 02:12:00,
2013-08-28 22:17:00,69.1,62.2,29.97,NW,315,2.0,0.0,79,0.00,,,0.00,meteohub,2013-08-29 02:17:00,
2013-08-28 22:22:00,69.1,62.2,30.00,NW,315,0.0,2.0,79,0.00,,,0.00,meteohub,2013-08-29 02:22:00,
2013-08-28 22:27:00,68.9,62.4,30.00,SSW,202,0.0,2.0,80,0.00,,,0.00,meteohub,2013-08-29 02:27:00,
2013-08-28 22:32:00,68.9,62.4,30.00,WNW,292,0.0,2.0,80,0.00,,,0.00,meteohub,2013-08-29 02:32:00,
2013-08-28 22:37:00,68.7,62.6,30.00,WNW,292,0.0,1.0,81,0.00,,,0.00,meteohub,2013-08-29 02:37:00,
2013-08-28 22:42:00,68.5,62.4,30.00,West,270,0.0,1.0,81,0.00,,,0.00,meteohub,2013-08-29 02:42:00,
2013-08-28 22:47:00,68.5,62.4,30.00,NW,315,0.0,0.0,81,0.00,,,0.00,meteohub,2013-08-29 02:47:00,
2013-08-28 22:52:00,68.4,62.2,30.00,NW,315,0.0,0.0,81,0.00,,,0.00,meteohub,2013-08-29 02:52:00,
2013-08-28 22:57:00,68.4,63.0,30.00,NW,315,1.0,0.0,83,0.00,,,0.00,meteohub,2013-08-29 02:57:00,
2013-08-28 23:02:00,68.2,62.8,29.97,NE,45,0.0,1.0,83,0.00,,,0.00,meteohub,2013-08-29 03:02:00,
2013-08-28 23:07:00,68.0,62.6,29.97,NNW,338,0.0,1.0,83,0.00,,,0.00,meteohub,2013-08-29 03:07:00,
2013-08-28 23:12:00,68.0,63.0,29.97,NNW,338,0.0,2.0,84,0.00,,,0.00,meteohub,2013-08-29 03:12:00,
2013-08-28 23:17:00,67.8,63.1,29.97,NW,315,1.0,2.0,85,0.00,,,0.00,meteohub,2013-08-29 03:17:00,
2013-08-28 23:22:00,67.8,63.5,30.00,NNW,338,0.0,2.0,86,0.00,,,0.00,meteohub,2013-08-29 03:22:00,
2013-08-28 23:27:00,67.8,64.2,30.00,NW,315,2.0,2.0,88,0.00,,,0.00,meteohub,2013-08-29 03:27:00,
2013-08-28 23:32:00,67.5,63.9,30.00,NNW,338,2.0,2.0,88,0.00,,,0.00,meteohub,2013-08-29 03:32:00,
2013-08-28 23:37:00,67.3,63.7,30.00,NNW,338,2.0,3.0,88,0.00,,,0.00,meteohub,2013-08-29 03:37:00,
2013-08-28 23:42:00,67.1,63.1,30.00,NNW,338,2.0,3.0,87,0.00,,,0.00,meteohub,2013-08-29 03:42:00,
2013-08-28 23:47:00,67.1,63.1,30.00,East,90,1.0,3.0,87,0.00,,,0.00,meteohub,2013-08-29 03:47:00,
2013-08-28 23:52:00,67.1,63.7,30.00,NNW,338,2.0,3.0,89,0.00,,,0.00,meteohub,2013-08-29 03:52:00,
2013-08-28 23:57:00,66.9,63.5,30.00,NNE,22,0.0,2.0,89,0.00,,,0.00,meteohub,2013-08-29 03:57:00,